Вернуться в каталог

ONEWEB-0553

АктивенСвязьPO
NORAD 56055·PAYLOAD·🇬🇧 United Kingdom

Запущен Mar 26, 2023 с Satish Dhawan Space Centre

Loading…

Ближайшие Пролёты (ближайшие 24 часа)

TLE

СвежийSource: CelesTrak SupGP

Эпоха: Sep 14, 2026, 13:28 UTC

1 56055C 23043K   26257.56161296 -.00000586  00000+0 -15352-2 0  2576
2 56055  87.9154 211.0281 0001914  92.4630 302.0238 13.16596628    17

Отслеживайте ONEWEB-0553 в реальном времени с AllMySat

Download on the App Store